[Date Prev][Date Next][Thread Prev][Thread Next] - [Date Index][Thread Index][Author Index]

2 Line ISS Keps 6-20



ISS
1 25544U 98067A   04172.39406066  .00014904  00000-0  13027-3 0   320
2 25544  51.6329 309.3912 0005304 259.4376 150.1172 15.69167917318824


----
Via the sarex mailing list at AMSAT.ORG courtesy of AMSAT-NA.
To unsubscribe, send "unsubscribe sarex" to Majordomo@amsat.org



AMSAT Top AMSAT Home